Location: Julian California
(33.0790°N, 116.6010°W)
Time: 21:16:52
(UTC-07:00)

SJ-6B - Pass Details

Date: 12 July 2018
Orbit: 511 x 582 km, 97.7° (Epoch: 22 July)

Event Time Altitude Azimuth Distance (km) Brightness Sun altitude
Rises 20:21:37 0° 172° (S) 2,760 6.0 -5.3°
Reaches altitude 10° 20:23:45 10° 174° (S) 1,874 5.2 -5.7°
Maximum altitude 20:27:49 71° 259° (W) 613 3.2 -6.4°
Drops below altitude 10° 20:31:56 10° 344° (NNW) 1,901 6.4 -7.2°
Sets 20:34:07 0° 346° (NNW) 2,804 7.2 -7.6°
